Location: Beddau
(51.5575°N, 3.3561°W)
Time: 11:23:41
(UTC+00:00)

Cosmos 1844 Rocket - Pass Details

Date: 03 March 2021
Orbit: 826 x 843 km, 71.0° (Epoch: 13 April)

Event Time Altitude Azimuth Distance (km) Brightness Sun altitude
Rises 18:19:43 0° 331° (NNW) 3,379 6.2 -4.2°
Reaches altitude 10° 18:22:17 10° 338° (NNW) 2,441 5.4 -4.6°
Maximum altitude 18:27:38 44° 50° (NE) 1,127 3.1 -5.5°
Drops below altitude 10° 18:32:56 10° 123° (ESE) 2,428 4.6 -6.3°
Sets 18:35:29 0° 129° (SE) 3,359 5.4 -6.7°
